FW3337 Weather Reports


Display with metric or nautical units.
time (UTC)temp
F
wind
direction
speed
MPH
gust
MPH
rain 1hr
in
rain 24hr
in
rain mn
in
humidity
%
barometer
mb
20260905184524 76 53 0.0 1.0 0.00 0.00 0.00 67 1009.9
20260905183008 75 52 0.0 1.0 0.00 0.00 0.00 68 1009.9
20260905181507 76 50 0.0 4.0 0.00 0.00 0.00 63 1009.9
20260905180007 76 63 0.0 3.0 0.00 0.00 0.00 60 1010.0
20260905174505 77 98 0.0 3.0 0.00 0.00 0.00 62 1009.9
20260905173004 77 91 1.0 4.0 0.00 0.00 0.00 58 1010.0
20260905171502 77 258 0.0 6.0 0.00 0.00 0.00 63 1010.1
20260905170112 76 101 1.0 6.0 0.00 0.00 0.00 62 1010.3
20260905170001 76 101 1.0 6.0 0.00 0.00 0.00 62 1010.3
20260905164607 76 179 0.0 5.0 0.00 0.00 0.00 64 1010.3
20260905163108 75 83 1.0 8.0 0.00 0.00 0.00 63 1010.5
20260905161609 76 278 0.0 8.0 0.00 0.00 0.00 65 1010.3
20260905160057 76 66 0.0 7.0 0.00 0.00 0.00 65 1010.3
20260905154604 75 306 0.0 3.0 0.00 0.00 0.00 66 1010.2
20260905153051 74 299 0.0 5.0 0.00 0.00 0.00 67 1010.3
20260905151547 74 348 1.0 6.0 0.00 0.00 0.00 71 1010.4
20260905150048 73 79 0.0 4.0 0.00 0.00 0.00 71 1010.5
20260905144546 73 87 1.0 9.0 0.00 0.00 0.00 70 1010.4
20260905143042 72 123 1.0 5.0 0.00 0.00 0.00 73 1010.3
20260905141538 70 314 0.0 3.0 0.00 0.00 0.00 78 1010.3
20260905140038 70 303 1.0 4.0 0.00 0.00 0.00 78 1010.3
20260905134537 70 262 0.0 5.0 0.00 0.00 0.00 78 1010.2
20260905133039 69 253 0.0 5.0 0.00 0.00 0.00 79 1010.2
20260905131536 69 297 1.0 5.0 0.00 0.00 0.00 81 1010.4
20260905130036 68 173 1.0 4.0 0.00 0.00 0.00 82 1010.5
20260905124535 68 301 2.0 5.0 0.00 0.00 0.00 81 1010.7
20260905123035 67 270 0.0 2.0 0.00 0.00 0.00 84 1010.8
20260905121534 66 270 0.0 4.0 0.00 0.00 0.00 86 1010.8
20260905120034 65 88 0.0 3.0 0.00 0.00 0.00 86 1010.8
20260905114533 65 89 0.0 3.0 0.00 0.00 0.00 87 1010.8
20260905113030 63 266 0.0 1.0 0.00 0.00 0.00 91 1010.6
20260905111529 62 266 0.0 0.0 0.00 0.00 0.00 93 1010.2
20260905110029 61 266 0.0 2.0 0.00 0.00 0.00 93 1010.0
20260905104528 61 266 0.0 1.0 0.00 0.00 0.00 92 1009.9
20260905103026 62 266 0.0 0.0 0.00 0.00 0.00 92 1009.8
20260905101530 61 266 0.0 2.0 0.00 0.00 0.00 92 1009.7
20260905100053 61 266 0.0 2.0 0.00 0.00 0.00 92 1009.7
20260905094522 62 266 0.0 0.0 0.00 0.00 0.00 92 1009.7
20260905093021 62 266 0.0 0.0 0.00 0.00 0.00 92 1009.4
20260905091520 62 266 0.0 0.0 0.00 0.00 0.00 91 1009.4
20260905090018 62 266 0.0 0.0 0.00 0.00 0.00 90 1009.5
20260905084515 63 266 0.0 0.0 0.00 0.00 0.00 90 1009.3
20260905083013 64 266 0.0 0.0 0.00 0.00 0.00 89 1009.4
20260905081509 65 266 0.0 0.0 0.00 0.00 0.00 87 1009.4
20260905080008 65 266 0.0 0.0 0.00 0.00 0.00 86 1009.5
20260905074506 66 266 0.0 0.0 0.00 0.00 0.00 85 1009.6
20260905073008 67 266 0.0 2.0 0.00 0.00 0.00 86 1009.4
20260905071503 67 266 0.0 2.0 0.00 0.00 0.00 84 1009.4
20260905070002 67 266 0.0 0.0 0.00 0.00 0.00 83 1009.5
20260905064617 67 266 0.0 0.0 0.00 0.00 0.00 81 1009.6
20260905063057 68 266 0.0 0.0 0.00 0.00 0.00 84 1009.6
20260905061603 68 266 0.0 0.0 0.00 0.00 0.00 82 1009.8
20260905060053 68 266 0.0 0.0 0.00 0.00 0.00 81 1009.9
20260905054647 69 266 0.0 0.0 0.00 0.00 0.00 81 1010.0
20260905053049 69 266 0.0 1.0 0.00 0.00 0.00 80 1010.2
20260905051547 70 266 0.0 0.0 0.00 0.00 0.00 79 1010.3
20260905050045 70 266 0.0 0.0 0.00 0.00 0.00 78 1010.5
20260905044547 70 266 0.0 0.0 0.00 0.06 0.00 77 1010.5
20260905043043 71 266 0.0 0.0 0.00 0.06 0.00 75 1010.4
20260905041540 71 266 0.0 1.0 0.00 0.06 0.00 76 1010.3
20260905040040 71 266 0.0 2.0 0.00 0.06 0.00 76 1010.4
20260905034539 70 296 0.0 2.0 0.00 0.06 0.06 78 1010.3
20260905033040 70 296 0.0 2.0 0.00 0.06 0.06 79 1010.4
20260905031542 68 267 0.0 3.0 0.00 0.06 0.06 84 1010.3
20260905030038 66 260 0.0 2.0 0.00 0.06 0.06 93 1010.5
20260905024547 65 260 0.0 0.0 0.00 0.06 0.06 95 1010.5
20260905023035 65 260 0.0 0.0 0.00 0.06 0.06 95 1010.5
20260905021537 65 260 0.0 0.0 0.00 0.06 0.06 94 1010.4
20260905020037 65 260 0.0 0.0 0.00 0.06 0.06 94 1010.5
20260905014532 66 260 0.0 0.0 0.00 0.06 0.06 93 1010.6
20260905013030 66 260 0.0 0.0 0.00 0.06 0.06 93 1010.6
20260905011528 67 260 0.0 0.0 0.00 0.06 0.06 92 1010.5
20260905010036 67 260 0.0 0.0 0.00 0.06 0.06 92 1010.6
20260905004525 68 260 0.0 0.0 0.00 0.06 0.06 91 1010.6
20260905003023 68 260 0.0 0.0 0.00 0.06 0.06 90 1010.4
20260905001521 69 260 0.0 0.0 0.00 0.06 0.06 89 1010.3
20260905000031 70 260 0.0 0.0 0.00 0.06 0.06 87 1010.2
20260904234523 71 260 0.0 0.0 0.00 0.06 0.06 86 1010.2
20260904233020 72 260 0.0 0.0 0.00 0.06 0.06 84 1010.1
20260904231520 74 260 0.0 0.0 0.00 0.06 0.06 80 1010.0
20260904230019 75 260 0.0 0.0 0.00 0.06 0.06 77 1010.0
20260904224518 77 260 0.0 1.0 0.00 0.06 0.06 72 1010.0
20260904223019 78 260 0.0 1.0 0.00 0.06 0.06 67 1010.0
20260904221517 78 260 0.0 2.0 0.00 0.06 0.06 65 1010.1
20260904220017 79 260 0.0 2.0 0.00 0.06 0.06 63 1009.9
20260904214516 79 260 0.0 2.0 0.00 0.06 0.06 63 1009.9
20260904213015 80 260 0.0 3.0 0.00 0.06 0.06 61 1009.8
20260904211516 80 288 0.0 4.0 0.00 0.06 0.06 61 1009.8
20260904210019 81 339 0.0 5.0 0.00 0.06 0.06 60 1009.9
20260904204515 81 339 0.0 5.0 0.00 0.06 0.06 59 1010.0
20260904203018 81 296 0.0 4.0 0.00 0.06 0.06 60 1010.1
20260904201512 81 231 1.0 4.0 0.00 0.06 0.06 60 1010.3
20260904200012 81 212 1.0 5.0 0.00 0.06 0.06 62 1010.2
20260904194511 80 264 0.0 3.0 0.00 0.06 0.06 63 1010.2
20260904193010 80 278 0.0 4.0 0.00 0.06 0.06 67 1010.3
20260904191509 80 307 0.0 1.0 0.00 0.06 0.06 67 1010.4
20260904190009 80 18 0.0 2.0 0.00 0.06 0.06 67 1010.5